Year,Month,Day,Hour,Minute,Value (Times are PST for windspeed in km/hr)
2010,10,24,00,00,27.90
2010,10,24,00,01,21.00
2010,10,24,00,02,26.10
2010,10,24,00,03,21.50
2010,10,24,00,04,27.70
2010,10,24,00,05,26.70
2010,10,24,00,06,27.80
2010,10,24,00,07,31.40
2010,10,24,00,08,20.60
2010,10,24,00,09,26.40
2010,10,24,00,10,27.60
2010,10,24,00,11,34.50
2010,10,24,00,12,34.40
2010,10,24,00,13,22.10
2010,10,24,00,14,24.80
2010,10,24,00,15,24.80
2010,10,24,00,16,27.00
2010,10,24,00,17,26.30
2010,10,24,00,18,34.50
2010,10,24,00,19,35.80
2010,10,24,00,20,28.00
2010,10,24,00,21,26.70
2010,10,24,00,22,30.20
2010,10,24,00,23,33.00
2010,10,24,00,24,32.00
2010,10,24,00,25,34.30
2010,10,24,00,26,28.20
2010,10,24,00,27,28.80
2010,10,24,00,28,38.00
2010,10,24,00,29,30.90
2010,10,24,00,30,27.40
2010,10,24,00,31,26.80
2010,10,24,00,32,32.50
2010,10,24,00,33,29.30
2010,10,24,00,34,26.10
2010,10,24,00,35,25.90
2010,10,24,00,36,26.00
2010,10,24,00,37,30.40
2010,10,24,00,38,33.40
2010,10,24,00,39,35.50
2010,10,24,00,40,23.20
2010,10,24,00,41,24.30
2010,10,24,00,42,39.50
2010,10,24,00,43,25.50
2010,10,24,00,44,29.00
2010,10,24,00,45,34.40
2010,10,24,00,46,35.70
2010,10,24,00,47,27.30
2010,10,24,00,48,27.40
2010,10,24,00,49,28.30
2010,10,24,00,50,29.40
2010,10,24,00,51,31.10
2010,10,24,00,52,22.10
2010,10,24,00,53,24.10
2010,10,24,00,54,20.80
2010,10,24,00,55,23.00
2010,10,24,00,56,16.80
2010,10,24,00,57,22.70
2010,10,24,00,58,19.10
2010,10,24,00,59,18.30
2010,10,24,01,00,23.60
2010,10,24,01,01,26.40
2010,10,24,01,02,20.20
2010,10,24,01,03,23.40
2010,10,24,01,04,23.10
2010,10,24,01,05,20.60
2010,10,24,01,06,25.20
2010,10,24,01,07,24.80
2010,10,24,01,08,24.40
2010,10,24,01,09,22.80
2010,10,24,01,10,24.70
2010,10,24,01,11,22.40
2010,10,24,01,12,21.30
2010,10,24,01,13,33.00
2010,10,24,01,14,32.00
2010,10,24,01,15,20.80
2010,10,24,01,16,28.70
2010,10,24,01,17,21.90
2010,10,24,01,18,38.90
2010,10,24,01,19,30.40
2010,10,24,01,20,26.80
2010,10,24,01,21,27.60
2010,10,24,01,22,30.70
2010,10,24,01,23,24.10
2010,10,24,01,24,38.00
2010,10,24,01,25,32.60
2010,10,24,01,26,21.50
2010,10,24,01,27,18.40
2010,10,24,01,28,32.30
2010,10,24,01,29,38.30
2010,10,24,01,30,19.60
2010,10,24,01,31,11.50
2010,10,24,01,32,20.90
2010,10,24,01,33,19.80
2010,10,24,01,34,18.90
2010,10,24,01,35,32.90
2010,10,24,01,36,26.10
2010,10,24,01,37,17.60
2010,10,24,01,38,15.80
2010,10,24,01,39,18.70
2010,10,24,01,40,19.40
2010,10,24,01,41,23.70
2010,10,24,01,42,22.50
2010,10,24,01,43,23.20
2010,10,24,01,44,23.80
2010,10,24,01,45,22.20
2010,10,24,01,46,20.90
2010,10,24,01,47,22.10
2010,10,24,01,48,21.60
2010,10,24,01,49,13.60
2010,10,24,01,50,19.00
2010,10,24,01,51,18.40
2010,10,24,01,52,22.70
2010,10,24,01,53,24.80
2010,10,24,01,54,20.80
2010,10,24,01,55,18.90
2010,10,24,01,56,26.30
2010,10,24,01,57,21.40
2010,10,24,01,58,27.90
2010,10,24,01,59,27.60
2010,10,24,02,00,14.30
2010,10,24,02,01,18.10
2010,10,24,02,02,20.80
2010,10,24,02,03,17.50
2010,10,24,02,04,28.00
2010,10,24,02,05,26.80
2010,10,24,02,06,22.00
2010,10,24,02,07,25.60
2010,10,24,02,08,16.80
2010,10,24,02,09,18.90
2010,10,24,02,10,20.30
2010,10,24,02,11,24.10
2010,10,24,02,12,25.30
2010,10,24,02,13,19.70
2010,10,24,02,14,20.90
2010,10,24,02,15,21.20
2010,10,24,02,16,17.60
2010,10,24,02,17,22.60
2010,10,24,02,18,20.10
2010,10,24,02,19,18.10
2010,10,24,02,20,25.00
2010,10,24,02,21,15.80
2010,10,24,02,22,18.40
2010,10,24,02,23,17.90
2010,10,24,02,24,24.50
2010,10,24,02,25,14.80
2010,10,24,02,26,18.70
2010,10,24,02,27,21.30
2010,10,24,02,28,16.20
2010,10,24,02,29,25.10
2010,10,24,02,30,19.40
2010,10,24,02,31,25.50
2010,10,24,02,32,22.50
2010,10,24,02,33,23.20
2010,10,24,02,34,24.00
2010,10,24,02,35,20.20
2010,10,24,02,36,22.80
2010,10,24,02,37,20.10
2010,10,24,02,38,14.60
2010,10,24,02,39,15.90
2010,10,24,02,40,18.90
2010,10,24,02,41,18.50
2010,10,24,02,42,19.00
2010,10,24,02,43,24.60
2010,10,24,02,44,22.50
2010,10,24,02,45,17.80
2010,10,24,02,46,20.60
2010,10,24,02,47,19.60
2010,10,24,02,48,25.10
2010,10,24,02,49,18.10
2010,10,24,02,50,22.00
2010,10,24,02,51,21.40
2010,10,24,02,52,18.60
2010,10,24,02,53,17.80
2010,10,24,02,54,22.20
2010,10,24,02,55,20.70
2010,10,24,02,56,25.00
2010,10,24,02,57,27.40
2010,10,24,02,58,16.60
2010,10,24,02,59,22.10
2010,10,24,03,00,23.50
2010,10,24,03,01,17.40
2010,10,24,03,02,19.50
2010,10,24,03,03,17.70
2010,10,24,03,04,18.50
2010,10,24,03,05,16.20
2010,10,24,03,06,13.40
2010,10,24,03,07,14.70
2010,10,24,03,08,16.70
2010,10,24,03,09,18.10
2010,10,24,03,10,17.50
2010,10,24,03,11,14.10
2010,10,24,03,12,11.30
2010,10,24,03,13,15.30
2010,10,24,03,14,17.90
2010,10,24,03,15,13.10
2010,10,24,03,16,10.90
2010,10,24,03,17,11.20
2010,10,24,03,18,12.60
2010,10,24,03,19,11.80
2010,10,24,03,20,17.60
2010,10,24,03,21,14.00
2010,10,24,03,22,16.20
2010,10,24,03,23,19.90
2010,10,24,03,24,14.90
2010,10,24,03,25,17.20
2010,10,24,03,26,12.70
2010,10,24,03,27,14.00
2010,10,24,03,28,15.70
2010,10,24,03,29,15.50
2010,10,24,03,30,10.10
2010,10,24,03,31,14.40
2010,10,24,03,32,16.90
2010,10,24,03,33,14.10
2010,10,24,03,34,19.70
2010,10,24,03,35,16.80
2010,10,24,03,36,13.80
2010,10,24,03,37,11.60
2010,10,24,03,38,12.80
2010,10,24,03,39,10.90
2010,10,24,03,40,14.30
2010,10,24,03,41,11.20
2010,10,24,03,42,15.40
2010,10,24,03,43,11.80
2010,10,24,03,44,15.90
2010,10,24,03,45,20.10
2010,10,24,03,46,24.90
2010,10,24,03,47,16.90
2010,10,24,03,48,8.70
2010,10,24,03,49,13.60
2010,10,24,03,50,15.50
2010,10,24,03,51,11.10
2010,10,24,03,52,17.20
2010,10,24,03,53,13.50
2010,10,24,03,54,11.80
2010,10,24,03,55,16.00
2010,10,24,03,56,14.80
2010,10,24,03,57,15.80
2010,10,24,03,58,17.80
2010,10,24,03,59,21.50
2010,10,24,04,00,21.00
2010,10,24,04,01,19.50
2010,10,24,04,02,15.00
2010,10,24,04,03,8.50
2010,10,24,04,04,16.50
2010,10,24,04,05,14.40
2010,10,24,04,06,13.10
2010,10,24,04,07,22.10
2010,10,24,04,08,18.30
2010,10,24,04,09,16.00
2010,10,24,04,10,17.00
2010,10,24,04,11,15.60
2010,10,24,04,12,23.30
2010,10,24,04,13,17.30
2010,10,24,04,14,22.80
2010,10,24,04,15,18.10
2010,10,24,04,16,19.00
2010,10,24,04,17,17.40
2010,10,24,04,18,17.80
2010,10,24,04,19,17.50
2010,10,24,04,20,21.10
2010,10,24,04,21,20.20
2010,10,24,04,22,16.40
2010,10,24,04,23,11.00
2010,10,24,04,24,18.60
2010,10,24,04,25,17.90
2010,10,24,04,26,15.70
2010,10,24,04,27,15.90
2010,10,24,04,28,16.80
2010,10,24,04,29,13.30
2010,10,24,04,30,13.00
2010,10,24,04,31,17.50
2010,10,24,04,32,14.70
2010,10,24,04,33,15.00
2010,10,24,04,34,14.60
2010,10,24,04,35,19.80
2010,10,24,04,36,13.50
2010,10,24,04,37,14.10
2010,10,24,04,38,20.70
2010,10,24,04,39,19.50
2010,10,24,04,40,14.30
2010,10,24,04,41,11.20
2010,10,24,04,42,15.70
2010,10,24,04,43,10.40
2010,10,24,04,44,15.00
2010,10,24,04,45,13.00
2010,10,24,04,46,13.20
2010,10,24,04,47,7.50
2010,10,24,04,48,10.70
2010,10,24,04,49,9.70
2010,10,24,04,50,11.00
2010,10,24,04,51,7.60
2010,10,24,04,52,11.50
2010,10,24,04,53,8.70
2010,10,24,04,54,9.40
2010,10,24,04,55,2.20
2010,10,24,04,56,8.90
2010,10,24,04,57,11.70
2010,10,24,04,58,8.40
2010,10,24,04,59,5.20
2010,10,24,05,00,8.30
2010,10,24,05,01,12.10
2010,10,24,05,02,14.60
2010,10,24,05,03,17.90
2010,10,24,05,04,9.20
2010,10,24,05,05,13.40
2010,10,24,05,06,12.00
2010,10,24,05,07,11.20
2010,10,24,05,08,15.40
2010,10,24,05,09,7.50
2010,10,24,05,10,6.10
2010,10,24,05,11,7.60
2010,10,24,05,12,7.40
2010,10,24,05,13,5.90
2010,10,24,05,14,5.80
2010,10,24,05,15,6.40
2010,10,24,05,16,6.40
2010,10,24,05,17,7.60
2010,10,24,05,18,3.50
2010,10,24,05,19,9.30
2010,10,24,05,20,11.00
2010,10,24,05,21,5.70
2010,10,24,05,22,3.60
2010,10,24,05,23,5.60
2010,10,24,05,24,6.10
2010,10,24,05,25,7.90
2010,10,24,05,26,8.30
2010,10,24,05,27,4.90
2010,10,24,05,28,0.90
2010,10,24,05,29,2.40
2010,10,24,05,30,1.00
2010,10,24,05,31,3.90
2010,10,24,05,32,5.50
2010,10,24,05,33,2.00
2010,10,24,05,34,0.20
2010,10,24,05,35,0.50
2010,10,24,05,36,2.10
2010,10,24,05,37,2.00
2010,10,24,05,38,0.90
2010,10,24,05,39,0.10
2010,10,24,05,40,3.50
2010,10,24,05,41,2.80
2010,10,24,05,42,1.00
2010,10,24,05,43,1.80
2010,10,24,05,44,3.10
2010,10,24,05,45,2.80
2010,10,24,05,46,2.30
2010,10,24,05,47,0.00
2010,10,24,05,48,0.00
2010,10,24,05,49,2.30
2010,10,24,05,50,2.90
2010,10,24,05,51,3.00
2010,10,24,05,52,2.10
2010,10,24,05,53,0.60
2010,10,24,05,54,1.60
2010,10,24,05,55,0.00
2010,10,24,05,56,0.10
2010,10,24,05,57,0.10
2010,10,24,05,58,0.00
2010,10,24,05,59,0.00
2010,10,24,06,00,0.00
2010,10,24,06,01,0.00
2010,10,24,06,02,0.00
2010,10,24,06,03,0.00
2010,10,24,06,04,0.00
2010,10,24,06,05,0.00
2010,10,24,06,06,0.00
2010,10,24,06,07,0.00
2010,10,24,06,08,0.00
2010,10,24,06,09,0.00
2010,10,24,06,10,0.10
2010,10,24,06,11,0.10
2010,10,24,06,12,0.00
2010,10,24,06,13,0.00
2010,10,24,06,14,0.00
2010,10,24,06,15,0.00
2010,10,24,06,16,0.00
2010,10,24,06,17,0.00
2010,10,24,06,18,0.00
2010,10,24,06,19,0.00
2010,10,24,06,20,0.00
2010,10,24,06,21,1.80
2010,10,24,06,22,0.50
2010,10,24,06,23,0.00
2010,10,24,06,24,0.00
2010,10,24,06,25,0.00
2010,10,24,06,26,0.00
2010,10,24,06,27,0.00
2010,10,24,06,28,0.10
2010,10,24,06,29,0.00
2010,10,24,06,30,0.00
2010,10,24,06,31,0.00
2010,10,24,06,32,0.00
2010,10,24,06,33,0.10
2010,10,24,06,34,0.10
2010,10,24,06,35,0.10
2010,10,24,06,36,0.10
2010,10,24,06,37,0.00
2010,10,24,06,38,1.20
2010,10,24,06,39,1.50
2010,10,24,06,40,0.70
2010,10,24,06,41,4.30
2010,10,24,06,42,1.20
2010,10,24,06,43,1.50
2010,10,24,06,44,0.10
2010,10,24,06,45,0.00
2010,10,24,06,46,1.50
2010,10,24,06,47,6.10
2010,10,24,06,48,2.80
2010,10,24,06,49,4.10
2010,10,24,06,50,0.30
2010,10,24,06,51,1.50
2010,10,24,06,52,1.50
2010,10,24,06,53,1.70
2010,10,24,06,54,2.80
2010,10,24,06,55,0.50
2010,10,24,06,56,0.00
2010,10,24,06,57,0.10
2010,10,24,06,58,0.50
2010,10,24,06,59,0.00
2010,10,24,07,00,0.40
2010,10,24,07,01,1.90
2010,10,24,07,02,0.00
2010,10,24,07,03,0.00
2010,10,24,07,04,0.00
2010,10,24,07,05,0.00
2010,10,24,07,06,0.10
2010,10,24,07,07,0.40
2010,10,24,07,08,0.50
2010,10,24,07,09,0.10
2010,10,24,07,10,0.00
2010,10,24,07,11,0.00
2010,10,24,07,12,0.70
2010,10,24,07,13,0.10
2010,10,24,07,14,0.00
2010,10,24,07,15,0.00
2010,10,24,07,16,0.80
2010,10,24,07,17,0.10
2010,10,24,07,18,0.00
2010,10,24,07,19,0.00
2010,10,24,07,20,0.00
2010,10,24,07,21,0.00
2010,10,24,07,22,0.00
2010,10,24,07,23,0.10
2010,10,24,07,24,0.70
2010,10,24,07,25,0.00
2010,10,24,07,26,0.00
2010,10,24,07,27,0.00
2010,10,24,07,28,0.00
2010,10,24,07,29,0.10
2010,10,24,07,30,0.00
2010,10,24,07,31,0.00
2010,10,24,07,32,0.00
2010,10,24,07,33,0.00
2010,10,24,07,34,0.00
2010,10,24,07,35,0.00
2010,10,24,07,36,0.00
2010,10,24,07,37,1.00
2010,10,24,07,38,0.50
2010,10,24,07,39,0.00
2010,10,24,07,40,0.00
2010,10,24,07,41,0.00
2010,10,24,07,42,0.10
2010,10,24,07,43,0.00
2010,10,24,07,44,0.00
2010,10,24,07,45,0.00
2010,10,24,07,46,0.00
2010,10,24,07,47,1.20
2010,10,24,07,48,0.40
2010,10,24,07,49,0.00
2010,10,24,07,50,0.90
2010,10,24,07,51,0.10
2010,10,24,07,52,0.00
2010,10,24,07,53,0.70
2010,10,24,07,54,1.80
2010,10,24,07,55,1.20
2010,10,24,07,56,0.00
2010,10,24,07,57,0.00
2010,10,24,07,58,0.00
2010,10,24,07,59,1.40
2010,10,24,08,00,3.10
2010,10,24,08,01,0.90
2010,10,24,08,02,0.10
2010,10,24,08,03,0.20
2010,10,24,08,04,3.40
2010,10,24,08,05,1.90
2010,10,24,08,06,0.20
2010,10,24,08,07,0.10
2010,10,24,08,08,0.20
2010,10,24,08,09,2.30
2010,10,24,08,10,0.00
2010,10,24,08,11,0.00
2010,10,24,08,12,0.10
2010,10,24,08,13,0.00
2010,10,24,08,14,0.00
2010,10,24,08,15,0.00
2010,10,24,08,16,0.00
2010,10,24,08,17,0.00
2010,10,24,08,18,1.20
2010,10,24,08,19,3.40
2010,10,24,08,20,3.20
2010,10,24,08,21,3.30
2010,10,24,08,22,2.70
2010,10,24,08,23,0.40
2010,10,24,08,24,0.10
2010,10,24,08,25,0.00
2010,10,24,08,26,0.10
2010,10,24,08,27,0.10
2010,10,24,08,28,0.00
2010,10,24,08,29,0.40
2010,10,24,08,30,0.10
2010,10,24,08,31,0.00
2010,10,24,08,32,0.00
2010,10,24,08,33,0.00
2010,10,24,08,34,0.00
2010,10,24,08,35,1.00
2010,10,24,08,36,1.60
2010,10,24,08,37,2.40
2010,10,24,08,38,1.70
2010,10,24,08,39,0.00
2010,10,24,08,40,0.10
2010,10,24,08,41,0.10
2010,10,24,08,42,0.00
2010,10,24,08,43,0.00
2010,10,24,08,44,0.00
2010,10,24,08,45,0.00
2010,10,24,08,46,0.20
2010,10,24,08,47,0.20
2010,10,24,08,48,1.00
2010,10,24,08,49,0.70
2010,10,24,08,50,0.90
2010,10,24,08,51,1.70
2010,10,24,08,52,2.00
2010,10,24,08,53,2.00
2010,10,24,08,54,0.10
2010,10,24,08,55,0.00
2010,10,24,08,56,0.30
2010,10,24,08,57,0.60
2010,10,24,08,58,0.00
2010,10,24,08,59,0.40
2010,10,24,09,00,0.00
2010,10,24,09,01,0.00
2010,10,24,09,02,0.10
2010,10,24,09,03,1.60
2010,10,24,09,04,0.30
2010,10,24,09,05,0.00
2010,10,24,09,06,0.00
2010,10,24,09,07,2.90
2010,10,24,09,08,1.20
2010,10,24,09,09,0.30
2010,10,24,09,10,1.90
2010,10,24,09,11,1.70
2010,10,24,09,12,0.60
2010,10,24,09,13,3.20
2010,10,24,09,14,5.30
2010,10,24,09,15,2.70
2010,10,24,09,16,1.80
2010,10,24,09,17,0.70
2010,10,24,09,18,2.60
2010,10,24,09,19,4.70
2010,10,24,09,20,3.10
2010,10,24,09,21,2.80
2010,10,24,09,22,3.90
2010,10,24,09,23,2.70
2010,10,24,09,24,3.50
2010,10,24,09,25,4.60
2010,10,24,09,26,4.00
2010,10,24,09,27,1.90
2010,10,24,09,28,2.10
2010,10,24,09,29,1.30
2010,10,24,09,30,2.50
2010,10,24,09,31,0.90
2010,10,24,09,32,2.30
2010,10,24,09,33,1.60
2010,10,24,09,34,2.70
2010,10,24,09,35,1.90
2010,10,24,09,36,1.00
2010,10,24,09,37,2.80
2010,10,24,09,38,0.90
2010,10,24,09,39,0.10
2010,10,24,09,40,0.00
2010,10,24,09,41,2.10
2010,10,24,09,42,0.90
2010,10,24,09,43,0.00
2010,10,24,09,44,0.40
2010,10,24,09,45,1.20
2010,10,24,09,46,0.10
2010,10,24,09,47,0.10
2010,10,24,09,48,0.10
2010,10,24,09,49,1.00
2010,10,24,09,50,0.40
2010,10,24,09,51,0.20
2010,10,24,09,52,0.50
2010,10,24,09,53,0.30
2010,10,24,09,54,0.30
2010,10,24,09,55,0.20
2010,10,24,09,56,0.10
2010,10,24,09,57,0.00
2010,10,24,09,58,0.30
2010,10,24,09,59,0.00
2010,10,24,10,00,0.00
2010,10,24,10,01,0.40
2010,10,24,10,02,0.00
2010,10,24,10,03,0.00
2010,10,24,10,04,0.00
2010,10,24,10,05,0.50
2010,10,24,10,06,3.10
2010,10,24,10,07,1.40
2010,10,24,10,08,2.00
2010,10,24,10,09,0.00
2010,10,24,10,10,0.20
2010,10,24,10,11,2.70
2010,10,24,10,12,0.50
2010,10,24,10,13,1.10
2010,10,24,10,14,0.30
2010,10,24,10,15,0.10
2010,10,24,10,16,0.00
2010,10,24,10,17,0.00
2010,10,24,10,18,0.00
2010,10,24,10,19,1.50
2010,10,24,10,20,0.10
2010,10,24,10,21,0.00
2010,10,24,10,22,0.00
2010,10,24,10,23,0.00
2010,10,24,10,24,0.00
2010,10,24,10,25,0.00
2010,10,24,10,26,0.00
2010,10,24,10,27,0.70
2010,10,24,10,28,0.60
2010,10,24,10,29,0.20
2010,10,24,10,30,0.10
2010,10,24,10,31,0.40
2010,10,24,10,32,0.10
2010,10,24,10,33,0.60
2010,10,24,10,34,1.50
2010,10,24,10,35,1.10
2010,10,24,10,36,2.70
2010,10,24,10,37,1.70
2010,10,24,10,38,2.90
2010,10,24,10,39,0.40
2010,10,24,10,40,0.10
2010,10,24,10,41,0.10
2010,10,24,10,42,0.10
2010,10,24,10,43,0.10
2010,10,24,10,44,4.20
2010,10,24,10,45,3.70
2010,10,24,10,46,0.60
2010,10,24,10,47,0.10
2010,10,24,10,48,0.30
2010,10,24,10,49,1.00
2010,10,24,10,50,0.00
2010,10,24,10,51,1.30
2010,10,24,10,52,2.10
2010,10,24,10,53,2.00
2010,10,24,10,54,4.10
2010,10,24,10,55,5.10
2010,10,24,10,56,1.50
2010,10,24,10,57,1.70
2010,10,24,10,58,0.90
2010,10,24,10,59,3.60
2010,10,24,11,00,3.90
2010,10,24,11,01,1.60
2010,10,24,11,02,0.60
2010,10,24,11,03,0.10
2010,10,24,11,04,1.20
2010,10,24,11,05,0.60
2010,10,24,11,06,0.10
2010,10,24,11,07,1.20
2010,10,24,11,08,0.50
2010,10,24,11,09,0.50
2010,10,24,11,10,1.30
2010,10,24,11,11,2.50
2010,10,24,11,12,3.30
2010,10,24,11,13,3.20
2010,10,24,11,14,4.50
2010,10,24,11,15,2.70
2010,10,24,11,16,1.40
2010,10,24,11,17,4.00
2010,10,24,11,18,5.40
2010,10,24,11,19,1.50
2010,10,24,11,20,1.20
2010,10,24,11,21,2.20
2010,10,24,11,22,1.80
2010,10,24,11,23,1.70
2010,10,24,11,24,0.70
2010,10,24,11,25,3.20
2010,10,24,11,26,2.10
2010,10,24,11,27,5.70
2010,10,24,11,28,4.40
2010,10,24,11,29,5.00
2010,10,24,11,30,2.30
2010,10,24,11,31,2.90
2010,10,24,11,32,3.10
2010,10,24,11,33,2.50
2010,10,24,11,34,1.90
2010,10,24,11,35,8.90
2010,10,24,11,36,3.60
2010,10,24,11,37,4.50
2010,10,24,11,38,2.90
2010,10,24,11,39,2.70
2010,10,24,11,40,5.40
2010,10,24,11,41,3.10
2010,10,24,11,42,5.20
2010,10,24,11,43,12.20
2010,10,24,11,44,3.50
2010,10,24,11,45,0.60
2010,10,24,11,46,1.00
2010,10,24,11,47,0.80
2010,10,24,11,48,2.20
2010,10,24,11,49,5.80
2010,10,24,11,50,1.40
2010,10,24,11,51,3.40
2010,10,24,11,52,5.00
2010,10,24,11,53,3.40
2010,10,24,11,54,0.80
2010,10,24,11,55,1.70
2010,10,24,11,56,5.80
2010,10,24,11,57,5.20
2010,10,24,11,58,3.80
2010,10,24,11,59,5.30
2010,10,24,12,00,3.80
2010,10,24,12,01,1.80
2010,10,24,12,02,1.50
2010,10,24,12,03,1.50
2010,10,24,12,04,5.00
2010,10,24,12,05,10.40
2010,10,24,12,06,5.10
2010,10,24,12,07,1.80
2010,10,24,12,08,5.20
2010,10,24,12,09,4.80
2010,10,24,12,10,4.40
2010,10,24,12,11,2.30
2010,10,24,12,12,2.60
2010,10,24,12,13,1.70
2010,10,24,12,14,2.60
2010,10,24,12,15,4.60
2010,10,24,12,16,1.90
2010,10,24,12,17,3.60
2010,10,24,12,18,0.50
2010,10,24,12,19,1.40
2010,10,24,12,20,0.20
2010,10,24,12,21,0.10
2010,10,24,12,22,2.10
2010,10,24,12,23,3.90
2010,10,24,12,24,1.60
2010,10,24,12,25,0.00
2010,10,24,12,26,0.30
2010,10,24,12,27,3.80
2010,10,24,12,28,0.80
2010,10,24,12,29,1.30
2010,10,24,12,30,0.50
2010,10,24,12,31,0.10
2010,10,24,12,32,0.00
2010,10,24,12,33,1.50
2010,10,24,12,34,0.20
2010,10,24,12,35,0.10
2010,10,24,12,36,0.70
2010,10,24,12,37,2.10
2010,10,24,12,38,3.60
2010,10,24,12,39,1.60
2010,10,24,12,40,1.00
2010,10,24,12,41,0.10
2010,10,24,12,42,3.30
2010,10,24,12,43,3.40
2010,10,24,12,44,0.80
2010,10,24,12,45,1.40
2010,10,24,12,46,0.20
2010,10,24,12,47,0.80
2010,10,24,12,48,1.30
2010,10,24,12,49,2.10
2010,10,24,12,50,1.40
2010,10,24,12,51,1.50
2010,10,24,12,52,1.90
2010,10,24,12,53,1.80
2010,10,24,12,54,3.80
2010,10,24,12,55,6.40
2010,10,24,12,56,5.20
2010,10,24,12,57,1.20
2010,10,24,12,58,2.20
2010,10,24,12,59,1.80
2010,10,24,13,00,0.00
2010,10,24,13,01,0.50
2010,10,24,13,02,1.60
2010,10,24,13,03,4.70
2010,10,24,13,04,0.60
2010,10,24,13,05,0.20
2010,10,24,13,06,1.60
2010,10,24,13,07,1.40
2010,10,24,13,08,6.10
2010,10,24,13,09,9.20
2010,10,24,13,10,5.60
2010,10,24,13,11,7.90
2010,10,24,13,12,7.20
2010,10,24,13,13,4.20
2010,10,24,13,14,2.20
2010,10,24,13,15,3.50
2010,10,24,13,16,8.50
2010,10,24,13,17,3.80
2010,10,24,13,18,2.50
2010,10,24,13,19,7.70
2010,10,24,13,20,6.10
2010,10,24,13,21,7.50
2010,10,24,13,22,4.30
2010,10,24,13,23,7.30
2010,10,24,13,24,3.90
2010,10,24,13,25,7.90
2010,10,24,13,26,5.20
2010,10,24,13,27,3.10
2010,10,24,13,28,2.90
2010,10,24,13,29,2.60
2010,10,24,13,30,5.30
2010,10,24,13,31,4.80
2010,10,24,13,32,3.30
2010,10,24,13,33,6.60
2010,10,24,13,34,7.10
2010,10,24,13,35,6.20
2010,10,24,13,36,3.70
2010,10,24,13,37,3.20
2010,10,24,13,38,4.40
2010,10,24,13,39,3.60
2010,10,24,13,40,2.90
2010,10,24,13,41,3.50
2010,10,24,13,42,2.40
2010,10,24,13,43,6.70
2010,10,24,13,44,6.30
2010,10,24,13,45,3.40
2010,10,24,13,46,3.50
2010,10,24,13,47,2.70
2010,10,24,13,48,2.80
2010,10,24,13,49,1.40
2010,10,24,13,50,3.60
2010,10,24,13,51,4.70
2010,10,24,13,52,5.40
2010,10,24,13,53,5.40
2010,10,24,13,54,1.50
2010,10,24,13,55,4.40
2010,10,24,13,56,4.70
2010,10,24,13,57,3.90
2010,10,24,13,58,4.20
2010,10,24,13,59,5.40
2010,10,24,14,00,6.10
2010,10,24,14,01,4.50
2010,10,24,14,02,5.00
2010,10,24,14,03,1.30
2010,10,24,14,04,0.10
2010,10,24,14,05,1.30
2010,10,24,14,06,2.60
2010,10,24,14,07,4.80
2010,10,24,14,08,5.10
2010,10,24,14,09,3.30
2010,10,24,14,10,3.60
2010,10,24,14,11,3.10
2010,10,24,14,12,3.70
2010,10,24,14,13,5.00
2010,10,24,14,14,5.00
2010,10,24,14,15,4.40
2010,10,24,14,16,6.50
2010,10,24,14,17,3.90
2010,10,24,14,18,6.50
2010,10,24,14,19,4.80
2010,10,24,14,20,6.90
2010,10,24,14,21,7.30
2010,10,24,14,22,3.60
2010,10,24,14,23,8.00
2010,10,24,14,24,8.60
2010,10,24,14,25,7.50
2010,10,24,14,26,8.70
2010,10,24,14,27,6.30
2010,10,24,14,28,5.80
2010,10,24,14,29,6.20
2010,10,24,14,30,8.30
2010,10,24,14,31,7.80
2010,10,24,14,32,7.50
2010,10,24,14,33,5.80
2010,10,24,14,34,7.30
2010,10,24,14,35,5.60
2010,10,24,14,36,9.10
2010,10,24,14,37,9.40
2010,10,24,14,38,8.60
2010,10,24,14,39,7.00
2010,10,24,14,40,10.00
2010,10,24,14,41,6.10
2010,10,24,14,42,7.10
2010,10,24,14,43,9.30
2010,10,24,14,44,8.80
2010,10,24,14,45,5.30
2010,10,24,14,46,5.50
2010,10,24,14,47,5.70
2010,10,24,14,48,6.20
2010,10,24,14,49,10.70
2010,10,24,14,50,7.50
2010,10,24,14,51,6.70
2010,10,24,14,52,4.90
2010,10,24,14,53,13.60
2010,10,24,14,54,5.40
2010,10,24,14,55,3.60
2010,10,24,14,56,4.40
2010,10,24,14,57,7.20
2010,10,24,14,58,3.40
2010,10,24,14,59,7.20
2010,10,24,15,00,9.40
2010,10,24,15,01,7.40
2010,10,24,15,02,10.20
2010,10,24,15,03,10.30
2010,10,24,15,04,5.80
2010,10,24,15,05,6.40
2010,10,24,15,06,4.70
2010,10,24,15,07,4.20
2010,10,24,15,08,5.40
2010,10,24,15,09,4.70
2010,10,24,15,10,3.60
2010,10,24,15,11,8.20
2010,10,24,15,12,5.40
2010,10,24,15,13,5.10
2010,10,24,15,14,6.70
2010,10,24,15,15,10.20
2010,10,24,15,16,6.50
2010,10,24,15,17,7.60
2010,10,24,15,18,6.30
2010,10,24,15,19,2.60
2010,10,24,15,20,6.70
2010,10,24,15,21,3.20
2010,10,24,15,22,2.90
2010,10,24,15,23,6.80
2010,10,24,15,24,7.00
2010,10,24,15,25,3.10
2010,10,24,15,26,1.50
2010,10,24,15,27,1.70
2010,10,24,15,28,3.80
2010,10,24,15,29,0.50
2010,10,24,15,30,2.80
2010,10,24,15,31,2.50
2010,10,24,15,32,2.90
2010,10,24,15,33,3.40
2010,10,24,15,34,6.10
2010,10,24,15,35,10.20
2010,10,24,15,36,9.20
2010,10,24,15,37,6.20
2010,10,24,15,38,6.60
2010,10,24,15,39,8.10
2010,10,24,15,40,7.60
2010,10,24,15,41,3.90
2010,10,24,15,42,3.20
2010,10,24,15,43,3.90
2010,10,24,15,44,3.80
2010,10,24,15,45,6.70
2010,10,24,15,46,6.10
2010,10,24,15,47,4.30
2010,10,24,15,48,4.50
2010,10,24,15,49,7.50
2010,10,24,15,50,6.60
2010,10,24,15,51,5.60
2010,10,24,15,52,5.40
2010,10,24,15,53,7.00
2010,10,24,15,54,4.80
2010,10,24,15,55,6.50
2010,10,24,15,56,10.00
2010,10,24,15,57,7.50
2010,10,24,15,58,7.00
2010,10,24,15,59,10.80
2010,10,24,16,00,11.40
2010,10,24,16,01,14.40
2010,10,24,16,02,7.90
2010,10,24,16,03,6.20
2010,10,24,16,04,5.60
2010,10,24,16,05,5.40
2010,10,24,16,06,2.60
2010,10,24,16,07,7.80
2010,10,24,16,08,7.50
2010,10,24,16,09,9.70
2010,10,24,16,10,6.70
2010,10,24,16,11,6.90
2010,10,24,16,12,7.30
2010,10,24,16,13,8.50
2010,10,24,16,14,7.30
2010,10,24,16,15,13.80
2010,10,24,16,16,9.30
2010,10,24,16,17,9.50
2010,10,24,16,18,7.80
2010,10,24,16,19,4.70
2010,10,24,16,20,12.70
2010,10,24,16,21,6.80
2010,10,24,16,22,7.70
2010,10,24,16,23,8.80
2010,10,24,16,24,7.20
2010,10,24,16,25,4.00
2010,10,24,16,26,4.80
2010,10,24,16,27,3.40
2010,10,24,16,28,5.20
2010,10,24,16,29,5.30
2010,10,24,16,30,4.50
2010,10,24,16,31,7.60
2010,10,24,16,32,7.30
2010,10,24,16,33,7.40
2010,10,24,16,34,7.30
2010,10,24,16,35,8.40
2010,10,24,16,36,6.30
2010,10,24,16,37,9.10
2010,10,24,16,38,9.10
2010,10,24,16,39,8.30
2010,10,24,16,40,6.40
2010,10,24,16,41,5.70
2010,10,24,16,42,4.80
2010,10,24,16,43,1.20
2010,10,24,16,44,4.30
2010,10,24,16,45,3.70
2010,10,24,16,46,4.50
2010,10,24,16,47,3.60
2010,10,24,16,48,3.40
2010,10,24,16,49,2.00
2010,10,24,16,50,0.40
2010,10,24,16,51,3.80
2010,10,24,16,52,1.50
2010,10,24,16,53,2.20
2010,10,24,16,54,0.10
2010,10,24,16,55,0.90
2010,10,24,16,56,0.00
2010,10,24,16,57,1.50
2010,10,24,16,58,2.10
2010,10,24,16,59,2.10
2010,10,24,17,00,0.00
2010,10,24,17,01,0.00
2010,10,24,17,02,0.00
2010,10,24,17,03,2.50
2010,10,24,17,04,1.50
2010,10,24,17,05,4.80
2010,10,24,17,06,3.40
2010,10,24,17,07,5.20
2010,10,24,17,08,5.10
2010,10,24,17,09,3.10
2010,10,24,17,10,0.60
2010,10,24,17,11,0.00
2010,10,24,17,12,0.00
2010,10,24,17,13,0.70
2010,10,24,17,14,1.20
2010,10,24,17,15,3.70
2010,10,24,17,16,2.60
2010,10,24,17,17,0.50
2010,10,24,17,18,0.00
2010,10,24,17,19,0.70
2010,10,24,17,20,1.80
2010,10,24,17,21,0.50
2010,10,24,17,22,0.80
2010,10,24,17,23,0.80
2010,10,24,17,24,0.10
2010,10,24,17,25,0.30
2010,10,24,17,26,0.00
2010,10,24,17,27,0.00
2010,10,24,17,28,0.30
2010,10,24,17,29,0.60
2010,10,24,17,30,0.10
2010,10,24,17,31,0.00
2010,10,24,17,32,2.10
2010,10,24,17,33,0.00
2010,10,24,17,34,0.10
2010,10,24,17,35,2.60
2010,10,24,17,36,0.40
2010,10,24,17,37,0.00
2010,10,24,17,38,0.00
2010,10,24,17,39,0.00
2010,10,24,17,40,0.00
2010,10,24,17,41,0.10
2010,10,24,17,42,0.00
2010,10,24,17,43,0.00
2010,10,24,17,44,0.20
2010,10,24,17,45,0.10
2010,10,24,17,46,0.10
2010,10,24,17,47,0.00
2010,10,24,17,48,0.40
2010,10,24,17,49,0.00
2010,10,24,17,50,0.10
2010,10,24,17,51,0.00
2010,10,24,17,52,0.10